Location: Azul
(36.7830°S, 59.8500°W)
Time: 01:49:37
(UTC-03:00)

SRMSAT - Visible Passes

Search period start: 23 October 2021 00:00
Search period end: 02 November 2021 00:00
Orbit: 848 x 865 km, 20.0° (Epoch: 22 October)

Date Brightness Start Highest point End Pass type
(mag) Time Alt. Az. Time Alt. Az. Time Alt. Az.
30 Oct ? 05:22:50 10° NNW 05:25:57 14° N 05:29:04 10° NE visible
31 Oct ? 05:09:36 10° NNW 05:12:48 15° N 05:16:00 10° NE visible
01 Nov ? 04:56:28 10° NNW 04:59:39 15° N 05:02:54 10° NE visible
